Location: Melizzano
(41.1500°N, 14.5000°E)
Time: 20:27:45
(UTC+00:00)

Cosmos 990 Rocket - Pass Details

Date: 11 May 2021
Orbit: 747 x 769 km, 74.0° (Epoch: 21 June)

Event Time Altitude Azimuth Distance (km) Brightness Sun altitude
Exits shadow 21:20:06 78° 242° (WSW) 784 3.9 -26.5°
Maximum altitude 21:20:22 82° 289° (WNW) 777 3.9 -26.5°
Drops below altitude 10° 21:25:38 10° 18° (NNE) 2,314 7.0 -27.0°
Sets 21:28:01 0° 19° (NNE) 3,246 7.9 -27.1°
